25-04-2022, 00:00:00,    347,    0.9,    5.5,   0.00,   0.00, 1012.2,   81.8, -999.0
25-04-2022, 00:00:10,    347,    0.0,    5.3,   0.00,   0.00, 1012.1,   81.2, -999.0
25-04-2022, 00:00:20,    352,    0.2,    5.4,   0.00,   0.00, 1012.1,   81.3, -999.0
25-04-2022, 00:00:30,    352,    0.1,    5.4,   0.00,   0.00, 1012.2,   81.4, -999.0
25-04-2022, 00:00:40,    357,    0.0,    5.4,   0.00,   0.00, 1012.1,   81.2, -999.0
25-04-2022, 00:00:50,    357,    0.1,    5.4,   0.00,   0.00, 1012.1,   81.3, -999.0
25-04-2022, 00:00:59,    357,    0.0,    5.3,   0.00,   0.00, 1012.1,   81.3, -999.0
25-04-2022, 00:01:10,     11,    0.6,    5.4,   0.00,   0.00, 1012.2,   81.5, -999.0
25-04-2022, 00:01:20,     13,    0.4,    5.4,   0.00,   0.00, 1012.2,   81.4, -999.0
25-04-2022, 00:01:29,      0,    1.2,    5.4,   0.00,   0.00, 1012.3,   81.3, -999.0
25-04-2022, 00:01:39,      8,    1.1,    5.3,   0.00,   0.00, 1012.3,   81.5, -999.0
25-04-2022, 00:01:49,    358,    0.4,    5.2,   0.00,   0.00, 1012.2,   81.1, -999.0
25-04-2022, 00:01:59,    359,    0.0,    5.1,   0.00,   0.00, 1012.2,   81.0, -999.0
25-04-2022, 00:02:09,      2,    0.0,    5.2,   0.00,   0.00, 1012.1,   81.0, -999.0
25-04-2022, 00:02:19,      0,    0.0,    5.2,   0.00,   0.00, 1012.1,   81.0, -999.0
25-04-2022, 00:02:29,      1,    0.0,    5.3,   0.00,   0.00, 1012.1,   81.3, -999.0
25-04-2022, 00:02:39,      0,    0.0,    5.3,   0.00,   0.00, 1012.1,   81.3, -999.0
25-04-2022, 00:02:49,     13,    0.3,    5.3,   0.00,   0.00, 1012.2,   81.5, -999.0
25-04-2022, 00:02:59,     29,    1.0,    5.3,   0.00,   0.00, 1012.2,   81.7, -999.0
25-04-2022, 00:03:09,     29,    0.0,    5.2,   0.00,   0.00, 1012.2,   81.1, -999.0
25-04-2022, 00:03:19,     29,    0.0,    5.1,   0.00,   0.00, 1012.1,   81.1, -999.0
25-04-2022, 00:03:29,     29,    0.0,    5.3,   0.00,   0.00, 1012.1,   81.2, -999.0
25-04-2022, 00:03:39,     29,    0.0,    5.3,   0.00,   0.00, 1012.1,   81.3, -999.0
25-04-2022, 00:03:49,     29,    0.0,    5.3,   0.00,   0.00, 1012.1,   81.4, -999.0
25-04-2022, 00:03:58,     29,    0.0,    5.4,   0.00,   0.00, 1012.1,   81.4, -999.0
25-04-2022, 00:04:08,     29,    0.0,    5.4,   0.00,   0.00, 1012.1,   81.5, -999.0
25-04-2022, 00:04:19,     29,    0.0,    5.5,   0.00,   0.00, 1012.1,   81.5, -999.0
25-04-2022, 00:04:28,     29,    0.0,    5.5,   0.00,   0.00, 1012.1,   81.5, -999.0
25-04-2022, 00:04:38,     29,    0.0,    5.4,   0.00,   0.00, 1012.2,   81.5, -999.0
25-04-2022, 00:04:49,     29,    0.0,    5.4,   0.00,   0.00, 1012.1,   81.4, -999.0
25-04-2022, 00:04:58,     28,    0.0,    5.5,   0.00,   0.00, 1012.1,   81.5, -999.0
25-04-2022, 00:05:08,     29,    0.0,    5.4,   0.00,   0.00, 1012.1,   81.4, -999.0
25-04-2022, 00:05:18,     29,    0.0,    5.5,   0.00,   0.00, 1012.2,   81.3, -999.0
25-04-2022, 00:05:28,     29,    0.0,    5.3,   0.00,   0.00, 1012.1,   81.1, -999.0
25-04-2022, 00:05:38,     29,    0.0,    5.4,   0.00,   0.00, 1012.1,   80.9, -999.0
25-04-2022, 00:05:48,     29,    0.0,    5.4,   0.00,   0.00, 1012.1,   80.9, -999.0
25-04-2022, 00:05:58,     29,    0.0,    5.5,   0.00,   0.00, 1012.1,   81.0, -999.0
25-04-2022, 00:06:08,     29,    0.0,    5.4,   0.00,   0.00, 1012.1,   81.1, -999.0
25-04-2022, 00:06:18,     29,    0.0,    5.4,   0.00,   0.00, 1012.1,   80.9, -999.0
25-04-2022, 00:06:28,     29,    0.0,    5.3,   0.00,   0.00, 1012.2,   80.8, -999.0
25-04-2022, 00:06:38,     29,    0.0,    5.3,   0.00,   0.00, 1012.2,   80.8, -999.0
25-04-2022, 00:06:48,     15,    2.8,    5.3,   0.00,   0.00, 1012.2,   81.0, -999.0
25-04-2022, 00:06:58,     26,    2.9,    5.3,   0.00,   0.00, 1012.3,   80.9, -999.0
25-04-2022, 00:07:07,     24,    2.5,    5.3,   0.00,   0.00, 1012.3,   80.9, -999.0
25-04-2022, 00:07:18,     42,    2.6,    5.2,   0.00,   0.00, 1012.3,   80.9, -999.0
25-04-2022, 00:07:28,     26,    0.9,    5.1,   0.00,   0.00, 1012.3,   80.9, -999.0
25-04-2022, 00:07:37,     26,    0.0,    5.0,   0.00,   0.00, 1012.2,   80.8, -999.0
25-04-2022, 00:07:47,     25,    0.0,    5.1,   0.00,   0.00, 1012.2,   80.8, -999.0
25-04-2022, 00:07:58,     24,    0.3,    5.1,   0.00,   0.00, 1012.2,   81.1, -999.0
25-04-2022, 00:08:07,      4,    0.9,    5.1,   0.00,   0.00, 1012.3,   81.3, -999.0
25-04-2022, 00:08:17,      8,    1.4,    5.2,   0.00,   0.00, 1012.2,   81.4, -999.0
25-04-2022, 00:08:27,      1,    1.8,    5.1,   0.00,   0.00, 1012.2,   81.4, -999.0
25-04-2022, 00:08:37,     30,    1.0,    5.1,   0.00,   0.00, 1012.2,   81.6, -999.0
25-04-2022, 00:08:47,      0,    0.4,    5.1,   0.00,   0.00, 1012.3,   81.4, -999.0
25-04-2022, 00:08:57,      0,    0.0,    5.0,   0.00,   0.00, 1012.2,   81.3, -999.0
25-04-2022, 00:09:07,      0,    0.0,    5.1,   0.00,   0.00, 1012.1,   81.3, -999.0
25-04-2022, 00:09:17,      0,    0.7,    5.2,   0.00,   0.00, 1012.1,   81.8, -999.0
25-04-2022, 00:09:27,      0,    0.3,    5.2,   0.00,   0.00, 1012.2,   81.8, -999.0
25-04-2022, 00:09:37,      0,    0.0,    5.1,   0.00,   0.00, 1012.2,   81.6, -999.0
25-04-2022, 00:09:47,      0,    0.0,    5.1,   0.00,   0.00, 1012.1,   81.6, -999.0
25-04-2022, 00:09:57,      0,    0.0,    5.1,   0.00,   0.00, 1012.1,   81.6, -999.0
25-04-2022, 00:10:07,      0,    0.0,    5.1,   0.00,   0.00, 1012.1,   81.5, -999.0
25-04-2022, 00:10:16,      0,    0.0,    5.1,   0.00,   0.00, 1012.1,   81.6, -999.0
25-04-2022, 00:10:27,      0,    0.2,    5.1,   0.00,   0.00, 1012.2,   81.6, -999.0
25-04-2022, 00:10:37,      0,    0.0,    5.1,   0.00,   0.00, 1012.1,   81.6, -999.0
25-04-2022, 00:10:46,      0,    0.0,    5.2,   0.00,   0.00, 1012.1,   81.6, -999.0
25-04-2022, 00:10:56,      0,    0.0,    5.2,   0.00,   0.00, 1012.1,   81.8, -999.0
25-04-2022, 00:11:06,      0,    0.0,    5.1,   0.00,   0.00, 1012.1,   81.7, -999.0
25-04-2022, 00:11:17,      0,    0.0,    5.2,   0.00,   0.00, 1012.1,   81.7, -999.0
25-04-2022, 00:11:26,      0,    0.0,    5.2,   0.00,   0.00, 1012.1,   81.6, -999.0
25-04-2022, 00:11:36,      0,    0.0,    5.2,   0.00,   0.00, 1012.1,   81.7, -999.0
25-04-2022, 00:11:46,     45,    0.1,    5.3,   0.00,   0.00, 1012.1,   81.9, -999.0
25-04-2022, 00:11:56,     46,    0.7,    5.2,   0.00,   0.00, 1012.2,   82.0, -999.0
25-04-2022, 00:12:06,     47,    0.3,    5.2,   0.00,   0.00, 1012.2,   81.6, -999.0
25-04-2022, 00:12:16,     48,    0.1,    5.2,   0.00,   0.00, 1012.2,   81.8, -999.0
25-04-2022, 00:12:26,     48,    0.0,    5.3,   0.00,   0.00, 1012.1,   81.5, -999.0
25-04-2022, 00:12:36,     48,    0.3,    5.2,   0.00,   0.00, 1012.2,   81.7, -999.0
25-04-2022, 00:12:46,     48,    0.5,    5.3,   0.00,   0.00, 1012.2,   82.0, -999.0
25-04-2022, 00:12:56,     21,    0.8,    5.3,   0.00,   0.00, 1012.3,   82.1, -999.0
25-04-2022, 00:13:06,     43,    1.4,    5.3,   0.00,   0.00, 1012.3,   81.8, -999.0
25-04-2022, 00:13:16,     29,    1.8,    5.3,   0.00,   0.00, 1012.3,   81.8, -999.0
25-04-2022, 00:13:25,      1,    1.1,    5.3,   0.00,   0.00, 1012.2,   81.4, -999.0
25-04-2022, 00:13:36,     27,    0.2,    5.1,   0.00,   0.00, 1012.1,   81.7, -999.0
25-04-2022, 00:13:45,     31,    0.2,    5.1,   0.00,   0.00, 1012.1,   81.6, -999.0
25-04-2022, 00:13:55,     30,    0.0,    5.1,   0.00,   0.00, 1012.1,   81.4, -999.0
25-04-2022, 00:14:06,     30,    0.0,    5.1,   0.00,   0.00, 1012.1,   81.5, -999.0
25-04-2022, 00:14:15,     31,    0.0,    5.1,   0.00,   0.00, 1012.1,   81.6, -999.0
25-04-2022, 00:14:25,     31,    0.0,    5.2,   0.00,   0.00, 1012.1,   81.8, -999.0
25-04-2022, 00:14:35,     31,    0.0,    5.3,   0.00,   0.00, 1012.1,   81.9, -999.0
25-04-2022, 00:14:45,     31,    0.0,    5.3,   0.00,   0.00, 1012.1,   81.8, -999.0
25-04-2022, 00:14:55,     31,    0.0,    5.3,   0.00,   0.00, 1012.1,   81.9, -999.0
25-04-2022, 00:15:05,     54,    0.3,    5.3,   0.00,   0.00, 1012.1,   82.0, -999.0
25-04-2022, 00:15:15,     21,    1.2,    5.4,   0.00,   0.00, 1012.2,   82.2, -999.0
25-04-2022, 00:15:25,     21,    0.0,    5.3,   0.00,   0.00, 1012.1,   81.4, -999.0
25-04-2022, 00:15:35,     22,    0.0,    5.3,   0.00,   0.00, 1012.2,   81.7, -999.0
25-04-2022, 00:15:45,     22,    0.0,    5.3,   0.00,   0.00, 1012.2,   81.7, -999.0
25-04-2022, 00:15:55,     37,    0.7,    5.3,   0.00,   0.00, 1012.2,   81.7, -999.0
25-04-2022, 00:16:05,     45,    1.5,    5.3,   0.00,   0.00, 1012.3,   81.8, -999.0
25-04-2022, 00:16:15,     20,    2.8,    5.3,   0.00,   0.00, 1012.2,   81.6, -999.0
25-04-2022, 00:16:24,    349,    1.7,    5.2,   0.00,   0.00, 1012.2,   81.6, -999.0
25-04-2022, 00:16:35,      0,    0.7,    5.1,   0.00,   0.00, 1012.2,   81.5, -999.0
25-04-2022, 00:16:45,     84,    0.9,    5.1,   0.00,   0.00, 1012.2,   81.6, -999.0
25-04-2022, 00:16:54,     84,    0.2,    5.1,   0.00,   0.00, 1012.2,   81.5, -999.0
25-04-2022, 00:17:04,     51,    1.7,    5.2,   0.00,   0.00, 1012.2,   81.6, -999.0
25-04-2022, 00:17:15,     51,    0.5,    5.2,   0.00,   0.00, 1012.2,   81.7, -999.0
25-04-2022, 00:17:24,     45,    1.3,    5.2,   0.00,   0.00, 1012.2,   81.5, -999.0
25-04-2022, 00:17:34,     46,    0.9,    5.2,   0.00,   0.00, 1012.2,   81.7, -999.0
25-04-2022, 00:17:44,     54,    0.8,    5.2,   0.00,   0.00, 1012.2,   81.7, -999.0
25-04-2022, 00:17:54,     54,    0.1,    5.1,   0.00,   0.00, 1012.2,   81.6, -999.0
25-04-2022, 00:18:04,     56,    0.0,    5.2,   0.00,   0.00, 1012.1,   81.9, -999.0
25-04-2022, 00:18:14,     55,    0.0,    5.2,   0.00,   0.00, 1012.1,   81.9, -999.0
25-04-2022, 00:18:24,     56,    0.0,    5.3,   0.00,   0.00, 1012.2,   81.8, -999.0
25-04-2022, 00:18:34,     12,    1.2,    5.3,   0.00,   0.00, 1012.2,   82.1, -999.0
25-04-2022, 00:18:44,      7,    0.9,    5.2,   0.00,   0.00, 1012.2,   81.8, -999.0
25-04-2022, 00:18:54,      7,    0.0,    5.2,   0.00,   0.00, 1012.1,   81.5, -999.0
25-04-2022, 00:19:04,      7,    0.0,    5.3,   0.00,   0.00, 1012.2,   81.5, -999.0
25-04-2022, 00:19:14,      7,    0.0,    5.3,   0.00,   0.00, 1012.1,   81.5, -999.0
25-04-2022, 00:19:24,      7,    0.0,    5.3,   0.00,   0.00, 1012.1,   81.6, -999.0
25-04-2022, 00:19:33,     29,    0.0,    5.3,   0.00,   0.00, 1012.1,   81.5, -999.0
25-04-2022, 00:19:44,     31,    0.0,    5.3,   0.00,   0.00, 1012.1,   81.5, -999.0
25-04-2022, 00:19:54,     35,    0.0,    5.3,   0.00,   0.00, 1012.2,   81.4, -999.0
25-04-2022, 00:20:03,     34,    0.0,    5.4,   0.00,   0.00, 1012.2,   81.6, -999.0
25-04-2022, 00:20:14,     35,    0.0,    5.3,   0.00,   0.00, 1012.1,   81.5, -999.0
25-04-2022, 00:20:23,     35,    0.0,    5.3,   0.00,   0.00, 1012.1,   81.3, -999.0
25-04-2022, 00:20:33,     35,    0.0,    5.2,   0.00,   0.00, 1012.1,   81.2, -999.0
25-04-2022, 00:20:43,     34,    0.0,    5.2,   0.00,   0.00, 1012.1,   81.3, -999.0
25-04-2022, 00:20:53,     48,    0.5,    5.2,   0.00,   0.00, 1012.2,   81.6, -999.0
25-04-2022, 00:21:03,     48,    0.4,    5.3,   0.00,   0.00, 1012.2,   81.7, -999.0
25-04-2022, 00:21:13,    332,    0.1,    5.3,   0.00,   0.00, 1012.2,   81.7, -999.0
25-04-2022, 00:21:23,     62,    0.4,    5.3,   0.00,   0.00, 1012.2,   81.6, -999.0
25-04-2022, 00:21:33,     62,    0.3,    5.3,   0.00,   0.00, 1012.2,   81.4, -999.0
25-04-2022, 00:21:43,     62,    0.0,    5.2,   0.00,   0.00, 1012.1,   81.2, -999.0
25-04-2022, 00:21:53,     63,    0.0,    5.2,   0.00,   0.00, 1012.1,   81.3, -999.0
25-04-2022, 00:22:03,     65,    0.0,    5.3,   0.00,   0.00, 1012.1,   81.4, -999.0
25-04-2022, 00:22:13,     40,    0.9,    5.3,   0.00,   0.00, 1012.2,   81.7, -999.0
25-04-2022, 00:22:23,     39,    1.6,    5.4,   0.00,   0.00, 1012.2,   81.7, -999.0
25-04-2022, 00:22:33,     34,    1.5,    5.4,   0.00,   0.00, 1012.2,   81.5, -999.0
25-04-2022, 00:22:43,     31,    0.9,    5.3,   0.00,   0.00, 1012.1,   81.5, -999.0
25-04-2022, 00:22:53,     53,    0.5,    5.3,   0.00,   0.00, 1012.1,   81.2, -999.0
25-04-2022, 00:23:02,     36,    0.4,    5.3,   0.00,   0.00, 1012.2,   81.3, -999.0
25-04-2022, 00:23:12,     36,    1.2,    5.4,   0.00,   0.00, 1012.2,   81.6, -999.0
25-04-2022, 00:23:23,     36,    0.1,    5.3,   0.00,   0.00, 1012.1,   81.3, -999.0
25-04-2022, 00:23:32,     37,    0.6,    5.3,   0.00,   0.00, 1012.1,   81.4, -999.0
25-04-2022, 00:23:42,     37,    0.6,    5.3,   0.00,   0.00, 1012.2,   81.6, -999.0
25-04-2022, 00:23:52,     23,    0.7,    5.3,   0.00,   0.00, 1012.2,   81.4, -999.0
25-04-2022, 00:24:02,     34,    0.0,    5.1,   0.00,   0.00, 1012.1,   81.1, -999.0
25-04-2022, 00:24:12,     33,    0.0,    5.2,   0.00,   0.00, 1012.1,   81.1, -999.0
25-04-2022, 00:24:22,     34,    0.0,    5.3,   0.00,   0.00, 1012.1,   81.4, -999.0
25-04-2022, 00:24:32,     42,    0.8,    5.3,   0.00,   0.00, 1012.2,   81.5, -999.0
25-04-2022, 00:24:42,     54,    0.5,    5.2,   0.00,   0.00, 1012.2,   81.9, -999.0
25-04-2022, 00:24:52,     54,    0.0,    5.2,   0.00,   0.00, 1012.1,   81.2, -999.0
25-04-2022, 00:25:02,     54,    0.0,    5.2,   0.00,   0.00, 1012.1,   81.1, -999.0
25-04-2022, 00:25:12,     54,    0.0,    5.2,   0.00,   0.00, 1012.1,   81.1, -999.0
25-04-2022, 00:25:22,     54,    0.0,    5.3,   0.00,   0.00, 1012.1,   81.3, -999.0
25-04-2022, 00:25:32,     55,    0.0,    5.3,   0.00,   0.00, 1012.1,   81.3, -999.0
25-04-2022, 00:25:41,     41,    0.2,    5.4,   0.00,   0.00, 1012.2,   81.8, -999.0
25-04-2022, 00:25:52,     41,    0.5,    5.2,   0.00,   0.00, 1012.2,   81.4, -999.0
25-04-2022, 00:26:02,     43,    0.1,    5.3,   0.00,   0.00, 1012.2,   81.2, -999.0
25-04-2022, 00:26:11,     48,    1.6,    5.3,   0.00,   0.00, 1012.2,   81.4, -999.0
25-04-2022, 00:26:21,      0,    3.2,    5.3,   0.00,   0.00, 1012.2,   81.4, -999.0
25-04-2022, 00:26:32,     51,    2.2,    5.2,   0.00,   0.00, 1012.2,   81.0, -999.0
25-04-2022, 00:26:41,     38,    3.5,    5.2,   0.00,   0.00, 1012.2,   81.2, -999.0
25-04-2022, 00:26:51,     50,    2.6,    5.1,   0.00,   0.00, 1012.2,   80.9, -999.0
25-04-2022, 00:27:01,     55,    2.3,    5.1,   0.00,   0.00, 1012.2,   81.3, -999.0
25-04-2022, 00:27:11,     51,    1.2,    5.2,   0.00,   0.00, 1012.2,   81.4, -999.0
25-04-2022, 00:27:21,     51,    0.3,    5.1,   0.00,   0.00, 1012.2,   81.6, -999.0
25-04-2022, 00:27:31,     51,    0.0,    5.1,   0.00,   0.00, 1012.1,   81.4, -999.0
25-04-2022, 00:27:41,     51,    0.0,    5.2,   0.00,   0.00, 1012.1,   81.5, -999.0
25-04-2022, 00:27:51,     50,    0.0,    5.3,   0.00,   0.00, 1012.1,   81.6, -999.0
25-04-2022, 00:28:01,     21,    2.0,    5.3,   0.00,   0.00, 1012.2,   81.9, -999.0
25-04-2022, 00:28:11,      0,    1.8,    5.3,   0.00,   0.00, 1012.2,   81.8, -999.0
25-04-2022, 00:28:21,      0,    0.0,    5.2,   0.00,   0.00, 1012.1,   81.4, -999.0
25-04-2022, 00:28:31,      0,    0.0,    5.3,   0.00,   0.00, 1012.1,   81.3, -999.0
25-04-2022, 00:28:41,     26,    0.0,    5.2,   0.00,   0.00, 1012.1,   81.6, -999.0
25-04-2022, 00:28:50,     26,    0.0,    5.3,   0.00,   0.00, 1012.1,   81.5, -999.0
25-04-2022, 00:29:01,     83,    0.1,    5.2,   0.00,   0.00, 1012.1,   81.4, -999.0
25-04-2022, 00:29:11,     10,    1.7,    5.3,   0.00,   0.00, 1012.2,   81.7, -999.0
25-04-2022, 00:29:20,     51,    1.9,    5.3,   0.00,   0.00, 1012.2,   81.5, -999.0
25-04-2022, 00:29:30,     19,    1.3,    5.2,   0.00,   0.00, 1012.2,   81.4, -999.0
25-04-2022, 00:29:40,     21,    0.1,    5.1,   0.00,   0.00, 1012.1,   81.3, -999.0
25-04-2022, 00:29:50,     29,    0.4,    5.2,   0.00,   0.00, 1012.1,   81.3, -999.0
25-04-2022, 00:30:00,     29,    0.1,    5.1,   0.00,   0.00, 1012.1,   81.3, -999.0
25-04-2022, 00:30:10,     29,    0.0,    5.1,   0.00,   0.00, 1012.1,   81.3, -999.0
25-04-2022, 00:30:20,     29,    0.0,    5.2,   0.00,   0.00, 1012.1,   81.3, -999.0
25-04-2022, 00:30:30,     66,    0.9,    5.2,   0.00,   0.00, 1012.1,   81.6, -999.0
25-04-2022, 00:30:40,     66,    0.2,    5.2,   0.00,   0.00, 1012.1,   81.3, -999.0
25-04-2022, 00:30:50,      4,    0.3,    5.2,   0.00,   0.00, 1012.1,   81.5, -999.0
25-04-2022, 00:31:00,      4,    0.0,    5.1,   0.00,   0.00, 1012.1,   81.3, -999.0
25-04-2022, 00:31:10,      4,    0.2,    5.2,   0.00,   0.00, 1012.1,   81.4, -999.0
25-04-2022, 00:31:20,     11,    0.0,    5.2,   0.00,   0.00, 1012.1,   81.3, -999.0
25-04-2022, 00:31:30,     16,    0.0,    5.1,   0.00,   0.00, 1012.0,   81.3, -999.0
25-04-2022, 00:31:40,     16,    0.0,    5.2,   0.00,   0.00, 1012.0,   81.4, -999.0
25-04-2022, 00:31:50,     16,    0.0,    5.2,   0.00,   0.00, 1012.1,   81.4, -999.0
25-04-2022, 00:32:00,     16,    0.0,    5.2,   0.00,   0.00, 1012.1,   81.5, -999.0
25-04-2022, 00:32:10,     46,    0.6,    5.3,   0.00,   0.00, 1012.1,   81.6, -999.0
25-04-2022, 00:32:19,     51,    3.0,    5.3,   0.00,   0.00, 1012.2,   81.7, -999.0
25-04-2022, 00:32:29,     32,    2.5,    5.2,   0.00,   0.00, 1012.2,   81.6, -999.0
25-04-2022, 00:32:40,     32,    1.7,    5.0,   0.00,   0.00, 1012.2,   81.5, -999.0
25-04-2022, 00:32:49,     29,    1.4,    5.0,   0.00,   0.00, 1012.2,   81.2, -999.0
25-04-2022, 00:32:59,     42,    3.2,    5.1,   0.00,   0.00, 1012.2,   81.4, -999.0
25-04-2022, 00:33:09,     13,    1.6,    5.1,   0.00,   0.00, 1012.1,   81.2, -999.0
25-04-2022, 00:33:19,     31,    1.9,    5.0,   0.00,   0.00, 1012.1,   81.4, -999.0
25-04-2022, 00:33:29,      0,    3.1,    5.0,   0.00,   0.00, 1012.2,   81.4, -999.0
25-04-2022, 00:33:39,    345,    2.2,    5.0,   0.00,   0.00, 1012.2,   81.5, -999.0
25-04-2022, 00:33:49,     47,    2.0,    5.0,   0.00,   0.00, 1012.2,   81.6, -999.0
25-04-2022, 00:33:59,     41,    1.6,    5.0,   0.00,   0.00, 1012.1,   81.7, -999.0
25-04-2022, 00:34:09,     48,    1.4,    5.0,   0.00,   0.00, 1012.2,   81.8, -999.0
25-04-2022, 00:34:19,     43,    1.2,    5.0,   0.00,   0.00, 1012.2,   81.9, -999.0
25-04-2022, 00:34:29,     45,    2.0,    5.0,   0.00,   0.00, 1012.1,   82.0, -999.0
25-04-2022, 00:34:39,    357,    1.0,    5.0,   0.00,   0.00, 1012.2,   82.0, -999.0
25-04-2022, 00:34:49,    358,    0.0,    5.0,   0.00,   0.00, 1012.1,   81.8, -999.0
25-04-2022, 00:34:58,     23,    0.1,    5.1,   0.00,   0.00, 1012.1,   81.8, -999.0
25-04-2022, 00:35:09,     64,    0.5,    5.0,   0.00,   0.00, 1012.1,   82.0, -999.0
25-04-2022, 00:35:19,     54,    2.1,    5.1,   0.00,   0.00, 1012.1,   82.1, -999.0
25-04-2022, 00:35:28,     58,    1.2,    5.1,   0.00,   0.00, 1012.2,   82.2, -999.0
25-04-2022, 00:35:38,     58,    0.0,    5.1,   0.00,   0.00, 1012.1,   82.0, -999.0
25-04-2022, 00:35:49,     55,    0.8,    5.1,   0.00,   0.00, 1012.1,   82.1, -999.0
25-04-2022, 00:35:58,     57,    0.5,    5.1,   0.00,   0.00, 1012.1,   82.2, -999.0
25-04-2022, 00:36:08,     57,    0.1,    5.1,   0.00,   0.00, 1012.1,   81.9, -999.0
25-04-2022, 00:36:18,     54,    0.5,    5.1,   0.00,   0.00, 1012.1,   82.1, -999.0
25-04-2022, 00:36:28,     24,    0.9,    5.2,   0.00,   0.00, 1012.1,   82.1, -999.0
25-04-2022, 00:36:38,     60,    0.8,    5.2,   0.00,   0.00, 1012.1,   82.2, -999.0
25-04-2022, 00:36:48,     25,    1.3,    5.2,   0.00,   0.00, 1012.2,   82.1, -999.0
25-04-2022, 00:36:58,      0,    0.9,    5.1,   0.00,   0.00, 1012.2,   82.1, -999.0
25-04-2022, 00:37:08,      0,    0.6,    5.1,   0.00,   0.00, 1012.2,   81.9, -999.0
25-04-2022, 00:37:18,     54,    0.1,    5.1,   0.00,   0.00, 1012.1,   81.8, -999.0
25-04-2022, 00:37:28,     54,    0.4,    5.1,   0.00,   0.00, 1012.1,   82.0, -999.0
25-04-2022, 00:37:38,     53,    0.3,    5.2,   0.00,   0.00, 1012.1,   82.1, -999.0
25-04-2022, 00:37:48,     53,    0.6,    5.1,   0.00,   0.00, 1012.1,   82.1, -999.0
25-04-2022, 00:37:58,     54,    0.8,    5.1,   0.00,   0.00, 1012.1,   82.0, -999.0
25-04-2022, 00:38:07,     54,    0.1,    5.1,   0.00,   0.00, 1012.1,   82.2, -999.0
25-04-2022, 00:38:18,    358,    0.1,    5.1,   0.00,   0.00, 1012.1,   81.9, -999.0
25-04-2022, 00:38:28,    358,    0.0,    5.1,   0.00,   0.00, 1012.1,   82.0, -999.0
25-04-2022, 00:38:37,    358,    0.0,    5.1,   0.00,   0.00, 1012.0,   81.9, -999.0
25-04-2022, 00:38:48,    359,    0.0,    5.1,   0.00,   0.00, 1012.0,   81.8, -999.0
25-04-2022, 00:38:57,    358,    0.0,    5.1,   0.00,   0.00, 1012.0,   81.8, -999.0
25-04-2022, 00:39:07,    358,    0.0,    5.1,   0.00,   0.00, 1012.0,   81.8, -999.0
25-04-2022, 00:39:17,    358,    0.0,    5.2,   0.00,   0.00, 1012.0,   81.9, -999.0
25-04-2022, 00:39:27,    358,    0.0,    5.2,   0.00,   0.00, 1012.0,   81.8, -999.0
25-04-2022, 00:39:37,     30,    0.4,    5.2,   0.00,   0.00, 1012.1,   82.2, -999.0
25-04-2022, 00:39:47,     25,    1.2,    5.2,   0.00,   0.00, 1012.2,   82.2, -999.0
25-04-2022, 00:39:57,      0,    0.5,    5.2,   0.00,   0.00, 1012.2,   82.2, -999.0
25-04-2022, 00:40:07,      0,    0.0,    5.1,   0.00,   0.00, 1012.1,   81.6, -999.0
25-04-2022, 00:40:17,      0,    0.0,    5.0,   0.00,   0.00, 1012.1,   81.5, -999.0
25-04-2022, 00:40:27,      0,    0.0,    5.0,   0.00,   0.00, 1012.0,   81.5, -999.0
25-04-2022, 00:40:37,      0,    0.0,    5.0,   0.00,   0.00, 1012.0,   81.5, -999.0
25-04-2022, 00:40:47,      0,    0.0,    5.0,   0.00,   0.00, 1012.0,   81.6, -999.0
25-04-2022, 00:40:57,      0,    0.0,    5.0,   0.00,   0.00, 1012.0,   81.6, -999.0
25-04-2022, 00:41:07,      0,    0.0,    5.0,   0.00,   0.00, 1012.1,   81.7, -999.0
25-04-2022, 00:41:17,      0,    0.0,    5.0,   0.00,   0.00, 1012.0,   81.9, -999.0
25-04-2022, 00:41:27,      0,    0.0,    5.0,   0.00,   0.00, 1012.0,   81.8, -999.0
25-04-2022, 00:41:36,     18,    0.2,    5.1,   0.00,   0.00, 1012.1,   82.0, -999.0
25-04-2022, 00:41:46,     23,    0.0,    5.1,   0.00,   0.00, 1012.1,   82.0, -999.0
25-04-2022, 00:41:57,      0,    1.7,    5.2,   0.00,   0.00, 1012.2,   82.2, -999.0
25-04-2022, 00:42:06,      0,    1.7,    5.1,   0.00,   0.00, 1012.2,   82.0, -999.0
25-04-2022, 00:42:16,      0,    0.2,    5.0,   0.00,   0.00, 1012.1,   81.6, -999.0
25-04-2022, 00:42:26,      0,    0.1,    5.0,   0.00,   0.00, 1012.1,   81.7, -999.0
25-04-2022, 00:42:36,      4,    0.0,    5.0,   0.00,   0.00, 1012.1,   81.8, -999.0
25-04-2022, 00:42:46,      9,    0.1,    5.0,   0.00,   0.00, 1012.1,   81.8, -999.0
25-04-2022, 00:42:56,     20,    0.2,    5.0,   0.00,   0.00, 1012.1,   82.0, -999.0
25-04-2022, 00:43:06,     20,    0.1,    5.0,   0.00,   0.00, 1012.1,   81.9, -999.0
25-04-2022, 00:43:16,     20,    0.0,    5.0,   0.00,   0.00, 1012.0,   81.7, -999.0
25-04-2022, 00:43:26,     20,    0.0,    4.9,   0.00,   0.00, 1012.0,   81.6, -999.0
25-04-2022, 00:43:36,     27,    1.8,    4.9,   0.00,   0.00, 1012.2,   82.2, -999.0
25-04-2022, 00:43:46,      8,    1.4,    4.8,   0.00,   0.00, 1012.2,   81.7, -999.0
25-04-2022, 00:43:56,      8,    0.1,    4.8,   0.00,   0.00, 1012.1,   81.7, -999.0
25-04-2022, 00:44:06,      8,    0.0,    4.9,   0.00,   0.00, 1012.1,   82.0, -999.0
25-04-2022, 00:44:15,      8,    0.0,    4.9,   0.00,   0.00, 1012.0,   81.9, -999.0
25-04-2022, 00:44:26,      8,    0.0,    4.9,   0.00,   0.00, 1012.0,   82.0, -999.0
25-04-2022, 00:44:36,     30,    0.0,    4.9,   0.00,   0.00, 1012.0,   82.1, -999.0
25-04-2022, 00:44:45,     32,    0.1,    4.9,   0.00,   0.00, 1012.0,   82.2, -999.0
25-04-2022, 00:44:55,     22,    1.5,    4.9,   0.00,   0.00, 1012.1,   82.3, -999.0
25-04-2022, 00:45:06,     19,    0.8,    4.9,   0.00,   0.00, 1012.2,   82.2, -999.0
25-04-2022, 00:45:15,     19,    0.4,    4.9,   0.00,   0.00, 1012.1,   82.3, -999.0
25-04-2022, 00:45:25,     19,    0.0,    4.8,   0.00,   0.00, 1012.0,   81.9, -999.0
25-04-2022, 00:45:35,     20,    0.0,    4.8,   0.00,   0.00, 1012.0,   82.1, -999.0
25-04-2022, 00:45:45,     21,    0.0,    4.8,   0.00,   0.00, 1012.0,   82.3, -999.0
25-04-2022, 00:45:55,     20,    0.0,    4.9,   0.00,   0.00, 1012.0,   82.2, -999.0
25-04-2022, 00:46:05,     20,    0.0,    4.8,   0.00,   0.00, 1012.0,   82.5, -999.0
25-04-2022, 00:46:15,     20,    0.0,    4.9,   0.00,   0.00, 1012.0,   82.4, -999.0
25-04-2022, 00:46:25,     20,    0.0,    4.9,   0.00,   0.00, 1012.1,   82.5, -999.0
25-04-2022, 00:46:35,     22,    0.0,    4.9,   0.00,   0.00, 1012.1,   82.4, -999.0